GLO1714 SBBR-SBCY

Flight info

Callsign GLO1714
Flight time 1h 18m
Altitude 36000
Route SIREM DCT LODOV DCT MABMA DCT SINIP
Aircraft B738/M-SDE2E3FGHIRWXY/LB1

Departure

Time 2026-04-26 21:07
Airport Presidente Juscelino Kubitschek International Airport (SBBR)

Arrival

Time 2026-04-26 22:25
Airport Várzea Grande–Marechal Rondon International Airport (SBCY)
Time Latitude Longitude Altitude Speed Heading
2026-04-26 20:25 -15.86710 -47.91932 3473 ft 0 kts 176°
2026-04-26 20:50 -15.86685 -47.91934 3473 ft 4 kts 172°
2026-04-26 20:50 -15.86659 -47.91940 3474 ft 4 kts 162°
2026-04-26 20:50 -15.86634 -47.91951 3473 ft 4 kts 140°
2026-04-26 20:51 -15.86623 -47.91968 3474 ft 2 kts 86°
2026-04-26 20:51 -15.86623 -47.91969 3474 ft 1 kts 86°
2026-04-26 20:56 -15.86622 -47.91968 3472 ft 1 kts 86°
2026-04-26 20:56 -15.86621 -47.91946 3473 ft 6 kts 86°
2026-04-26 20:56 -15.86618 -47.91894 3474 ft 7 kts 86°
2026-04-26 20:57 -15.86614 -47.91842 3476 ft 7 kts 83°
2026-04-26 20:57 -15.86578 -47.91812 3471 ft 8 kts
2026-04-26 20:57 -15.86507 -47.91805 3468 ft 12 kts 39°
2026-04-26 20:57 -15.86486 -47.91725 3467 ft 12 kts 84°
2026-04-26 20:58 -15.86481 -47.91643 3465 ft 11 kts 87°
2026-04-26 20:58 -15.86475 -47.91562 3464 ft 11 kts 85°
2026-04-26 20:58 -15.86469 -47.91473 3465 ft 14 kts 86°
2026-04-26 20:58 -15.86462 -47.91370 3469 ft 15 kts 86°
2026-04-26 20:59 -15.86454 -47.91234 3477 ft 21 kts 86°
2026-04-26 20:59 -15.86444 -47.91088 3480 ft 20 kts 86°
2026-04-26 20:59 -15.86435 -47.90947 3481 ft 19 kts 86°
2026-04-26 20:59 -15.86431 -47.90879 3479 ft 19 kts 86°
2026-04-26 21:00 -15.86426 -47.90808 3483 ft 19 kts 86°
2026-04-26 21:00 -15.86422 -47.90753 3483 ft 18 kts 86°
2026-04-26 21:00 -15.86416 -47.90653 3480 ft 18 kts 86°
2026-04-26 21:00 -15.86413 -47.90610 3481 ft 18 kts 86°
2026-04-26 21:01 -15.86406 -47.90486 3482 ft 17 kts 86°
2026-04-26 21:01 -15.86398 -47.90366 3483 ft 16 kts 86°
2026-04-26 21:01 -15.86390 -47.90250 3482 ft 16 kts 86°
2026-04-26 21:01 -15.86383 -47.90139 3480 ft 15 kts 86°
2026-04-26 21:02 -15.86376 -47.90033 3480 ft 14 kts 86°
2026-04-26 21:02 -15.86370 -47.89932 3483 ft 14 kts 86°
2026-04-26 21:02 -15.86363 -47.89835 3480 ft 13 kts 86°
2026-04-26 21:02 -15.86343 -47.89746 3477 ft 13 kts 38°
2026-04-26 21:03 -15.86276 -47.89743 3483 ft 0 kts 354°
2026-04-26 21:03 -15.86263 -47.89745 3483 ft 6 kts 354°
2026-04-26 21:04 -15.86207 -47.89760 3484 ft 10 kts 328°
2026-04-26 21:04 -15.86170 -47.89816 3488 ft 10 kts 285°
2026-04-26 21:04 -15.86169 -47.89837 3489 ft 0 kts 268°
2026-04-26 21:06 -15.86170 -47.89868 3489 ft 24 kts 268°
2026-04-26 21:06 -15.86200 -47.90284 3494 ft 92 kts 265°
2026-04-26 21:06 -15.86255 -47.91168 3469 ft 152 kts 266°
2026-04-26 21:07 -15.86325 -47.92394 3721 ft 179 kts 268°
2026-04-26 21:07 -15.86350 -47.93719 4308 ft 189 kts 282°
2026-04-26 21:07 -15.85826 -47.94965 5029 ft 190 kts 291°
2026-04-26 21:07 -15.85559 -47.96360 5518 ft 210 kts 280°
2026-04-26 21:08 -15.85300 -47.97938 5727 ft 232 kts 281°
2026-04-26 21:08 -15.84994 -47.99664 5928 ft 254 kts 281°
2026-04-26 21:08 -15.84755 -48.01531 6199 ft 272 kts 267°
2026-04-26 21:08 -15.85137 -48.03519 6574 ft 288 kts 256°
2026-04-26 21:09 -15.85611 -48.05549 7394 ft 290 kts 257°
2026-04-26 21:09 -15.86075 -48.07588 8218 ft 291 kts 257°
2026-04-26 21:09 -15.86536 -48.09651 8973 ft 295 kts 257°
2026-04-26 21:09 -15.86999 -48.11745 9712 ft 299 kts 257°
2026-04-26 21:10 -15.87461 -48.13861 10417 ft 304 kts 256°
2026-04-26 21:10 -15.87947 -48.16083 10673 ft 327 kts 256°
2026-04-26 21:10 -15.88468 -48.18468 10859 ft 349 kts 256°
2026-04-26 21:10 -15.89015 -48.20986 11222 ft 363 kts 256°
2026-04-26 21:11 -15.89600 -48.23558 11824 ft 368 kts 251°
2026-04-26 21:11 -15.90790 -48.25892 12510 ft 367 kts 228°
2026-04-26 21:11 -15.92689 -48.27635 13230 ft 365 kts 210°
2026-04-26 21:11 -15.94886 -48.28974 13886 ft 368 kts 208°
2026-04-26 21:12 -15.97130 -48.30280 14482 ft 372 kts 207°
2026-04-26 21:12 -15.99407 -48.31593 15082 ft 376 kts 207°
2026-04-26 21:12 -16.01699 -48.32921 15680 ft 379 kts 207°
2026-04-26 21:12 -16.04007 -48.34269 16255 ft 382 kts 208°
2026-04-26 21:13 -16.06328 -48.35634 16817 ft 385 kts 208°
2026-04-26 21:13 -16.08668 -48.37017 17326 ft 388 kts 208°
2026-04-26 21:13 -16.11022 -48.38413 17818 ft 392 kts 208°
2026-04-26 21:13 -16.13401 -48.39826 18317 ft 395 kts 208°
2026-04-26 21:14 -16.14985 -48.40767 18638 ft 397 kts 208°
2026-04-26 21:14 -16.17388 -48.42196 19099 ft 400 kts 208°
2026-04-26 21:14 -16.20605 -48.44111 19683 ft 404 kts 208°
2026-04-26 21:14 -16.23053 -48.45568 20100 ft 407 kts 208°
2026-04-26 21:15 -16.25521 -48.47037 20542 ft 410 kts 208°
2026-04-26 21:15 -16.28010 -48.48519 20962 ft 413 kts 208°
2026-04-26 21:15 -16.29696 -48.49525 21236 ft 415 kts 209°
2026-04-26 21:15 -16.32560 -48.52174 21655 ft 426 kts 236°
2026-04-26 21:16 -16.33466 -48.54035 21913 ft 429 kts 248°
2026-04-26 21:16 -16.34147 -48.57069 22306 ft 433 kts 262°
2026-04-26 21:16 -16.34449 -48.60197 22672 ft 436 kts 264°
2026-04-26 21:16 -16.34705 -48.63359 22980 ft 440 kts 264°
2026-04-26 21:17 -16.34952 -48.66542 23280 ft 443 kts 264°
2026-04-26 21:17 -16.35206 -48.69747 23612 ft 445 kts 264°
2026-04-26 21:17 -16.35472 -48.72962 23926 ft 447 kts 264°
2026-04-26 21:17 -16.35747 -48.76153 24233 ft 449 kts 263°
2026-04-26 21:18 -16.36040 -48.79444 24530 ft 451 kts 263°
2026-04-26 21:18 -16.36331 -48.82660 24831 ft 453 kts 263°
2026-04-26 21:18 -16.36628 -48.85920 25363 ft 448 kts 263°
2026-04-26 21:18 -16.36921 -48.89141 26270 ft 435 kts 263°
2026-04-26 21:19 -16.37199 -48.92215 27295 ft 418 kts 263°
2026-04-26 21:19 -16.37467 -48.95178 28281 ft 404 kts 263°
2026-04-26 21:19 -16.37726 -48.98044 29106 ft 393 kts 263°
2026-04-26 21:19 -16.37980 -49.00851 29779 ft 386 kts 263°
2026-04-26 21:20 -16.38231 -49.03620 30313 ft 383 kts 263°
2026-04-26 21:20 -16.38480 -49.06381 30684 ft 384 kts 263°
2026-04-26 21:20 -16.38733 -49.09172 30809 ft 392 kts 263°
2026-04-26 21:21 -16.39252 -49.14912 30974 ft 409 kts 263°
2026-04-26 21:21 -16.39792 -49.20934 31125 ft 426 kts 263°
2026-04-26 21:22 -16.40349 -49.27186 31261 ft 441 kts 263°
2026-04-26 21:22 -16.40923 -49.33656 31375 ft 456 kts 263°
2026-04-26 21:23 -16.41514 -49.40332 31490 ft 470 kts 264°
2026-04-26 21:23 -16.41816 -49.43740 31539 ft 476 kts 263°
2026-04-26 21:23 -16.42426 -49.50681 31639 ft 486 kts 264°
2026-04-26 21:24 -16.43046 -49.57739 31956 ft 491 kts 264°
2026-04-26 21:24 -16.43355 -49.61274 32298 ft 488 kts 264°
2026-04-26 21:24 -16.43660 -49.64783 32634 ft 487 kts 263°
2026-04-26 21:25 -16.43965 -49.68293 32858 ft 487 kts 263°
2026-04-26 21:25 -16.44271 -49.71810 33062 ft 488 kts 263°
2026-04-26 21:25 -16.44578 -49.75336 33302 ft 488 kts 263°
2026-04-26 21:25 -16.44882 -49.78849 33609 ft 487 kts 263°
2026-04-26 21:26 -16.45186 -49.82360 33902 ft 486 kts 263°
2026-04-26 21:26 -16.45488 -49.85862 34131 ft 486 kts 263°
2026-04-26 21:26 -16.45791 -49.89372 34367 ft 486 kts 263°
2026-04-26 21:26 -16.46091 -49.92872 34652 ft 485 kts 263°
2026-04-26 21:27 -16.46386 -49.96317 34937 ft 483 kts 263°
2026-04-26 21:27 -16.46682 -49.99797 35175 ft 482 kts 263°
2026-04-26 21:27 -16.46979 -50.03269 35464 ft 481 kts 263°
2026-04-26 21:27 -16.47275 -50.06738 35684 ft 480 kts 263°
2026-04-26 21:28 -16.47570 -50.10202 35900 ft 480 kts 263°
2026-04-26 21:28 -16.47864 -50.13666 36122 ft 480 kts 263°
2026-04-26 21:28 -16.48455 -50.20612 36098 ft 481 kts 263°
2026-04-26 21:29 -16.49037 -50.27523 36094 ft 476 kts 263°
2026-04-26 21:29 -16.49614 -50.34379 36099 ft 473 kts 263°
2026-04-26 21:30 -16.50184 -50.41198 36098 ft 471 kts 263°
2026-04-26 21:30 -16.50750 -50.47991 36106 ft 471 kts 263°
2026-04-26 21:31 -16.51314 -50.54782 36116 ft 471 kts 264°
2026-04-26 21:31 -16.51879 -50.61597 36120 ft 473 kts 264°
2026-04-26 21:32 -16.52444 -50.68443 36121 ft 475 kts 264°
2026-04-26 21:32 -16.53007 -50.75322 36116 ft 477 kts 264°
2026-04-26 21:33 -16.53571 -50.82227 36114 ft 479 kts 264°
2026-04-26 21:33 -16.54135 -50.89164 36113 ft 480 kts 264°
2026-04-26 21:34 -16.54698 -50.96097 36103 ft 480 kts 264°
2026-04-26 21:34 -16.55259 -51.03039 36099 ft 480 kts 264°
2026-04-26 21:35 -16.55814 -51.09961 36101 ft 479 kts 264°
2026-04-26 21:35 -16.56367 -51.16874 36097 ft 478 kts 264°
2026-04-26 21:36 -16.56825 -51.22606 36105 ft 477 kts 264°
2026-04-26 21:36 -16.57464 -51.30652 36096 ft 476 kts 264°
2026-04-26 21:37 -16.58007 -51.37515 36102 ft 475 kts 264°
2026-04-26 21:37 -16.58547 -51.44365 36101 ft 474 kts 264°
2026-04-26 21:38 -16.59083 -51.51209 36101 ft 473 kts 265°
2026-04-26 21:38 -16.59617 -51.58054 36103 ft 474 kts 265°
2026-04-26 21:39 -16.60147 -51.64865 36104 ft 475 kts 265°
2026-04-26 21:39 -16.60678 -51.71733 36103 ft 476 kts 265°
2026-04-26 21:40 -16.61206 -51.78610 36102 ft 477 kts 265°
2026-04-26 21:40 -16.61736 -51.85508 36102 ft 477 kts 265°
2026-04-26 21:41 -16.62263 -51.92413 36101 ft 479 kts 265°
2026-04-26 21:41 -16.62790 -51.99340 36103 ft 480 kts 265°
2026-04-26 21:42 -16.63315 -52.06280 36112 ft 481 kts 265°
2026-04-26 21:42 -16.63839 -52.13234 36097 ft 481 kts 265°
2026-04-26 21:43 -16.64363 -52.20192 36088 ft 481 kts 265°
2026-04-26 21:43 -16.64883 -52.27144 36072 ft 481 kts 265°
2026-04-26 21:44 -16.65400 -52.34081 36074 ft 479 kts 265°
2026-04-26 21:44 -16.65912 -52.41003 36069 ft 478 kts 265°
2026-04-26 21:45 -16.66277 -52.45958 36073 ft 477 kts 265°
2026-04-26 21:45 -16.66779 -52.52813 36074 ft 476 kts 265°
2026-04-26 21:46 -16.67283 -52.59690 36070 ft 475 kts 265°
2026-04-26 21:46 -16.67783 -52.66556 36078 ft 474 kts 265°
2026-04-26 21:47 -16.68281 -52.73407 36070 ft 473 kts 265°
2026-04-26 21:47 -16.68775 -52.80249 36060 ft 473 kts 265°
2026-04-26 21:48 -16.69269 -52.87132 36057 ft 473 kts 266°
2026-04-26 21:48 -16.69753 -52.93921 36054 ft 473 kts 266°
2026-04-26 21:49 -16.70239 -53.00759 36055 ft 473 kts 266°
2026-04-26 21:49 -16.70725 -53.07610 36053 ft 474 kts 266°
2026-04-26 21:50 -16.70803 -53.13353 36062 ft 473 kts 274°
2026-04-26 21:50 -16.70135 -53.21305 36059 ft 474 kts 276°
2026-04-26 21:51 -16.69518 -53.28150 36053 ft 474 kts 276°
2026-04-26 21:51 -16.68948 -53.35015 36052 ft 475 kts 275°
2026-04-26 21:52 -16.68404 -53.41892 36060 ft 476 kts 275°
2026-04-26 21:52 -16.67862 -53.48773 36060 ft 477 kts 275°
2026-04-26 21:53 -16.67317 -53.55662 36056 ft 476 kts 275°
2026-04-26 21:53 -16.66767 -53.62549 36049 ft 477 kts 275°
2026-04-26 21:54 -16.66216 -53.69435 36052 ft 476 kts 275°
2026-04-26 21:54 -16.65662 -53.76319 36074 ft 476 kts 275°
2026-04-26 21:55 -16.65105 -53.83202 36087 ft 477 kts 275°
2026-04-26 21:55 -16.64545 -53.90092 36082 ft 477 kts 275°
2026-04-26 21:56 -16.63983 -53.96980 36084 ft 477 kts 275°
2026-04-26 21:56 -16.63419 -54.03866 36086 ft 477 kts 275°
2026-04-26 21:57 -16.62853 -54.10757 36079 ft 477 kts 276°
2026-04-26 21:57 -16.62283 -54.17649 36087 ft 477 kts 276°
2026-04-26 21:58 -16.61713 -54.24535 36082 ft 476 kts 276°
2026-04-26 21:58 -16.61144 -54.31416 36087 ft 477 kts 276°
2026-04-26 21:59 -16.60856 -54.34868 35806 ft 482 kts 276°
2026-04-26 21:59 -16.60563 -54.38363 35199 ft 484 kts 276°
2026-04-26 21:59 -16.60269 -54.41850 34559 ft 483 kts 276°
2026-04-26 21:59 -16.59977 -54.45330 34097 ft 479 kts 276°
2026-04-26 22:00 -16.59692 -54.48727 33636 ft 475 kts 276°
2026-04-26 22:00 -16.59400 -54.52190 33172 ft 471 kts 276°
2026-04-26 22:00 -16.59117 -54.55538 32699 ft 468 kts 276°
2026-04-26 22:00 -16.58832 -54.58906 32251 ft 465 kts 276°
2026-04-26 22:01 -16.58541 -54.62248 31801 ft 461 kts 278°
2026-04-26 22:01 -16.57772 -54.65459 31284 ft 455 kts 296°
2026-04-26 22:01 -16.56330 -54.68373 30816 ft 451 kts 300°
2026-04-26 22:01 -16.55312 -54.70307 30461 ft 450 kts 301°
2026-04-26 22:02 -16.53315 -54.74074 29876 ft 446 kts 301°
2026-04-26 22:02 -16.52309 -54.75982 29574 ft 444 kts 300°
2026-04-26 22:02 -16.50839 -54.78795 29120 ft 440 kts 300°
2026-04-26 22:02 -16.49390 -54.81591 28667 ft 437 kts 299°
2026-04-26 22:03 -16.47977 -54.84334 28224 ft 434 kts 299°
2026-04-26 22:03 -16.46542 -54.87127 27770 ft 431 kts 299°
2026-04-26 22:03 -16.45152 -54.89836 27332 ft 427 kts 298°
2026-04-26 22:03 -16.43739 -54.92589 26886 ft 424 kts 298°
2026-04-26 22:04 -16.42353 -54.95289 26445 ft 421 kts 298°
2026-04-26 22:04 -16.40994 -54.97934 26015 ft 418 kts 298°
2026-04-26 22:04 -16.39627 -55.00594 25578 ft 415 kts 298°
2026-04-26 22:04 -16.38268 -55.03235 25153 ft 412 kts 297°
2026-04-26 22:05 -16.36920 -55.05856 24720 ft 409 kts 297°
2026-04-26 22:05 -16.35580 -55.08461 24289 ft 406 kts 297°
2026-04-26 22:05 -16.34249 -55.11044 23866 ft 403 kts 297°
2026-04-26 22:05 -16.32911 -55.13644 23448 ft 400 kts 297°
2026-04-26 22:06 -16.31619 -55.16152 23027 ft 398 kts 297°
2026-04-26 22:06 -16.30316 -55.18680 22601 ft 395 kts 297°
2026-04-26 22:06 -16.29019 -55.21194 22173 ft 392 kts 297°
2026-04-26 22:06 -16.27733 -55.23690 21754 ft 390 kts 297°
2026-04-26 22:07 -16.26455 -55.26165 21333 ft 388 kts 297°
2026-04-26 22:07 -16.25174 -55.28624 20917 ft 385 kts 300°
2026-04-26 22:07 -16.23687 -55.30934 20503 ft 383 kts 306°
2026-04-26 22:07 -16.22056 -55.33117 20093 ft 381 kts 308°
2026-04-26 22:08 -16.20399 -55.35252 19687 ft 378 kts 308°
2026-04-26 22:08 -16.18756 -55.37378 19281 ft 376 kts 308°
2026-04-26 22:08 -16.17134 -55.39505 18875 ft 374 kts 308°
2026-04-26 22:08 -16.15538 -55.41628 18472 ft 372 kts 308°
2026-04-26 22:09 -16.13960 -55.43744 18068 ft 369 kts 308°
2026-04-26 22:09 -16.12395 -55.45849 17674 ft 367 kts 308°
2026-04-26 22:09 -16.10842 -55.47943 17275 ft 365 kts 307°
2026-04-26 22:09 -16.09298 -55.50026 16881 ft 363 kts 308°
2026-04-26 22:10 -16.07762 -55.52096 16490 ft 360 kts 308°
2026-04-26 22:10 -16.06237 -55.54148 16105 ft 358 kts 308°
2026-04-26 22:10 -16.04720 -55.56189 15712 ft 356 kts 308°
2026-04-26 22:10 -16.03210 -55.58217 15338 ft 353 kts 308°
2026-04-26 22:11 -16.01712 -55.60229 14950 ft 351 kts 308°
2026-04-26 22:11 -16.00221 -55.62231 14570 ft 349 kts 308°
2026-04-26 22:11 -15.98739 -55.64222 14187 ft 347 kts 308°
2026-04-26 22:11 -15.97264 -55.66201 13802 ft 345 kts 308°
2026-04-26 22:12 -15.95798 -55.68170 13430 ft 343 kts 308°
2026-04-26 22:12 -15.94342 -55.70124 13059 ft 341 kts 308°
2026-04-26 22:12 -15.92892 -55.72070 12684 ft 340 kts 308°
2026-04-26 22:12 -15.91451 -55.74003 12303 ft 337 kts 308°
2026-04-26 22:13 -15.90019 -55.75924 11936 ft 335 kts 308°
2026-04-26 22:13 -15.88594 -55.77834 11567 ft 333 kts 308°
2026-04-26 22:13 -15.87180 -55.79730 11189 ft 331 kts 308°
2026-04-26 22:13 -15.85771 -55.81618 10827 ft 330 kts 308°
2026-04-26 22:14 -15.84372 -55.83492 10482 ft 327 kts 308°
2026-04-26 22:14 -15.82998 -55.85333 10348 ft 317 kts 308°
2026-04-26 22:14 -15.81664 -55.87121 10200 ft 309 kts 308°
2026-04-26 22:14 -15.80368 -55.88858 10067 ft 300 kts 309°
2026-04-26 22:15 -15.79106 -55.90548 9872 ft 294 kts 309°
2026-04-26 22:15 -15.77854 -55.92223 9586 ft 292 kts 309°
2026-04-26 22:15 -15.76573 -55.93849 9300 ft 289 kts 318°
2026-04-26 22:15 -15.74907 -55.94962 9064 ft 282 kts 335°
2026-04-26 22:16 -15.73181 -55.95858 8769 ft 281 kts 335°
2026-04-26 22:16 -15.71438 -55.96765 8486 ft 280 kts 335°
2026-04-26 22:16 -15.69708 -55.97672 8194 ft 278 kts 335°
2026-04-26 22:16 -15.67990 -55.98579 7914 ft 276 kts 334°
2026-04-26 22:17 -15.66283 -55.99484 7627 ft 275 kts 334°
2026-04-26 22:17 -15.64580 -56.00390 7342 ft 274 kts 334°
2026-04-26 22:17 -15.62890 -56.01287 7061 ft 273 kts 334°
2026-04-26 22:17 -15.61208 -56.02182 6782 ft 271 kts 334°
2026-04-26 22:18 -15.59538 -56.03072 6493 ft 270 kts 334°
2026-04-26 22:18 -15.57872 -56.03959 6208 ft 269 kts 334°
2026-04-26 22:18 -15.56212 -56.04846 5928 ft 269 kts 334°
2026-04-26 22:18 -15.54553 -56.05726 5648 ft 268 kts 334°
2026-04-26 22:19 -15.52899 -56.06604 5366 ft 267 kts 334°
2026-04-26 22:19 -15.51252 -56.07478 5087 ft 266 kts 334°
2026-04-26 22:19 -15.49615 -56.08349 4832 ft 264 kts 334°
2026-04-26 22:19 -15.47988 -56.09223 4560 ft 262 kts 330°
2026-04-26 22:20 -15.46693 -56.10497 4514 ft 256 kts 301°
2026-04-26 22:20 -15.46191 -56.12225 4389 ft 250 kts 271°
2026-04-26 22:20 -15.46448 -56.13969 4294 ft 241 kts 249°
2026-04-26 22:20 -15.47149 -56.15487 4222 ft 227 kts 242°
2026-04-26 22:21 -15.47864 -56.16891 4114 ft 213 kts 242°
2026-04-26 22:21 -15.48560 -56.18212 3918 ft 205 kts 235°
2026-04-26 22:21 -15.49630 -56.19093 3733 ft 193 kts 196°
2026-04-26 22:21 -15.50947 -56.19166 3539 ft 190 kts 163°
2026-04-26 22:22 -15.52155 -56.18650 3372 ft 186 kts 152°
2026-04-26 22:22 -15.53303 -56.18045 3209 ft 185 kts 152°
2026-04-26 22:22 -15.54436 -56.17444 2952 ft 183 kts 152°
2026-04-26 22:22 -15.55530 -56.16861 2760 ft 169 kts 152°
2026-04-26 22:23 -15.56547 -56.16321 2503 ft 159 kts 152°
2026-04-26 22:23 -15.57530 -56.15798 2308 ft 159 kts 152°
2026-04-26 22:23 -15.58515 -56.15275 2085 ft 158 kts 152°
2026-04-26 22:23 -15.59488 -56.14757 1871 ft 157 kts 152°
2026-04-26 22:24 -15.60452 -56.14245 1677 ft 156 kts 152°
2026-04-26 22:24 -15.61419 -56.13731 1455 ft 156 kts 152°
2026-04-26 22:24 -15.62384 -56.13217 1259 ft 156 kts 152°
2026-04-26 22:24 -15.63346 -56.12705 1013 ft 156 kts 152°
2026-04-26 22:25 -15.64309 -56.12188 697 ft 154 kts 152°
2026-04-26 22:25 -15.65212 -56.11713 598 ft 130 kts 153°
2026-04-26 22:25 -15.65798 -56.11400 596 ft 62 kts 153°
2026-04-26 22:25 -15.66036 -56.11272 596 ft 26 kts 153°
2026-04-26 22:26 -15.66148 -56.11211 596 ft 13 kts 152°
2026-04-26 22:26 -15.66159 -56.11200 596 ft 3 kts 121°
2026-04-26 22:26 -15.66185 -56.11174 597 ft 7 kts 182°
2026-04-26 22:26 -15.66176 -56.11196 596 ft 7 kts 319°
2026-04-26 22:27 -15.66108 -56.11240 596 ft 16 kts 330°
2026-04-26 22:27 -15.66008 -56.11294 596 ft 17 kts 332°
2026-04-26 22:27 -15.65872 -56.11365 595 ft 26 kts 334°
2026-04-26 22:27 -15.65715 -56.11446 597 ft 24 kts 333°
2026-04-26 22:28 -15.65571 -56.11527 597 ft 23 kts 326°
2026-04-26 22:28 -15.65431 -56.11597 598 ft 22 kts 335°
2026-04-26 22:28 -15.65294 -56.11669 598 ft 22 kts 332°
2026-04-26 22:28 -15.65163 -56.11739 597 ft 21 kts 333°
2026-04-26 22:29 -15.65069 -56.11804 597 ft 14 kts 293°
2026-04-26 22:29 -15.65087 -56.11891 596 ft 10 kts 269°
2026-04-26 22:29 -15.65038 -56.11939 596 ft 10 kts 333°
2026-04-26 22:29 -15.65000 -56.11961 595 ft 4 kts 307°
2026-04-26 22:30 -15.65004 -56.11990 596 ft 4 kts 247°
2026-04-26 22:30 -15.65009 -56.12001 596 ft 1 kts 245°
2026-04-26 22:30 -15.65010 -56.12002 596 ft 0 kts 244°
2026-04-26 22:31 -15.65009 -56.12001 596 ft 0 kts 242°